Location: Big Meadows
(38.5260°N, 78.4400°W)
Time: 18:42:06
(UTC-05:00)

Amateur Radio Satellites - All Passes

Search period start: 22 November 2014 18:12
Search period end: 23 November 2014 18:12
Location: Big Meadows, 38.5260°N, 78.4400°W

Satellite Date Start Highest point End Downlink Frequencies (MHz)
Time Altitude Azimuth
STRAND 1 22 Nov 18:18:10 18:22:20 25° 95° (E) 18:26:28 437.568
VERMONT LUNAR 22 Nov 18:19:41 18:23:18 61° 358° (N) 18:26:54 437.305
HO-68 22 Nov 18:19:49 18:22:23 12° 52° (NE) 18:24:56 435.675
GONETS M04 22 Nov 18:27:01 18:33:37 23° 66° (ENE) 18:40:08
JAS-2 22 Nov 18:30:17 18:35:07 18° 272° (W) 18:40:10 435.910
CUTE-I 22 Nov 18:35:44 18:40:29 32° 263° (W) 18:45:16 437.470
RS-15 22 Nov 18:39:28 18:49:27 39° 317° (NW) 18:59:33 29.354- 29.394
PRISM 22 Nov 18:48:36 18:52:42 49° 287° (WNW) 18:56:47 437.425
PCSat 22 Nov 19:12:49 19:16:05 16° 104° (ESE) 19:19:22 145.827
CUBESAT XI-V 22 Nov 19:19:21 19:24:01 70° 285° (WNW) 19:28:37 437.345
SEEDS 22 Nov 19:20:35 19:22:20 12° 65° (ENE) 19:24:05 437.485
DOVE 4 22 Nov 19:31:26 19:32:42 11° 64° (ENE) 19:33:56 437.250
PHONESAT 2.4 22 Nov 19:31:35 19:35:18 67° 7° (N) 19:39:00 2401.200-2431.200
AIST 1 22 Nov 19:35:17 19:39:07 30° 90° (E) 19:42:59
CANX-2 22 Nov 19:41:12 19:44:44 27° 70° (ENE) 19:48:18 2200.000
AAUSAT CUBESAT 2 22 Nov 19:44:04 19:46:46 17° 67° (ENE) 19:49:28 437.432
GOMX 1 22 Nov 19:53:00 19:57:04 27° 70° (ENE) 20:00:55 467.674
COMPASS 1 22 Nov 19:55:49 19:59:17 26° 70° (ENE) 20:02:45 437.405
STRAND 1 22 Nov 19:56:56 20:01:34 36° 291° (WNW) 20:06:10 437.568
VERMONT LUNAR 22 Nov 19:58:18 20:01:57 89° 15° (NNE) 20:05:35 437.305
BRITE-PL 22 Nov 20:01:31 20:06:27 46° 73° (ENE) 20:11:02 437.365/2234.400
HO-68 22 Nov 20:01:39 20:08:44 67° 70° (ENE) 20:15:52 435.675
DELFI C3 22 Nov 20:09:03 20:11:03 13° 65° (ENE) 20:13:03 145.870
CUTE 1.7 & AOD 2 22 Nov 20:15:40 20:19:48 62° 75° (ENE) 20:23:59 437.475
SHINDAISAT 22 Nov 20:17:40 20:19:20 32° 242° (WSW) 20:20:57 437.305
GONETS M04 22 Nov 20:22:30 20:31:19 75° 266° (W) 20:40:02
FUNcube-1 22 Nov 20:26:10 20:27:03 11° 64° (ENE) 20:27:56 145.935
UKube-1 22 Nov 20:26:20 20:29:55 25° 68° (ENE) 20:33:31 .
CINEMA 3 22 Nov 20:32:18 20:36:09 29° 71° (ENE) 20:39:53 145.822/145.860
CUBEBUG 2 22 Nov 20:32:29 20:35:24 18° 68° (ENE) 20:38:17 437.445
Oscar 11 22 Nov 20:40:04 20:44:02 37° 72° (ENE) 20:48:01 145.826/435.025
UWE-3 22 Nov 20:40:28 20:43:29 19° 68° (ENE) 20:46:27 435.000/436.395/437.385
BEESAT 3 22 Nov 20:50:54 20:54:54 57° 117° (ESE) 20:58:59 437.485
PCSat 22 Nov 20:53:34 20:58:55 62° 300° (WNW) 21:04:19 145.827
SEEDS 22 Nov 20:53:36 20:57:41 53° 260° (W) 21:01:48 437.485
DX 1 22 Nov 20:57:16 21:01:35 58° 74° (ENE) 21:05:54 434.975-435.025
RS-15 22 Nov 20:59:43 21:06:16 17° 350° (N) 21:12:53 29.354- 29.394
BEESAT 2 22 Nov 21:03:10 21:07:15 71° 119° (ESE) 21:11:25 435.950
DOVE 4 22 Nov 21:05:12 21:09:58 72° 258° (WSW) 21:14:28 437.250
PHONESAT 2.4 22 Nov 21:10:29 21:14:06 52° 203° (SSW) 21:17:42 2401.200-2431.200
VELOX 1 22 Nov 21:11:26 21:15:05 25° 68° (ENE) 21:18:44 145.980
AIST 1 22 Nov 21:13:30 21:16:48 21° 286° (WNW) 21:20:07
CANX-2 22 Nov 21:17:18 21:20:38 23° 265° (W) 21:24:00 2200.000
AAUSAT CUBESAT 2 22 Nov 21:18:20 21:22:09 36° 262° (W) 21:26:01 437.432
AIST 2 22 Nov 21:21:07 21:25:12 53° 117° (ESE) 21:29:23 435.215
ZACube-1 22 Nov 21:22:41 21:26:46 48° 74° (ENE) 21:30:49 437.345
GOMX 1 22 Nov 21:30:45 21:35:05 30° 263° (W) 21:39:10 467.674
COMPASS 1 22 Nov 21:31:39 21:34:58 23° 265° (W) 21:38:18 437.405
HUMSAT D 22 Nov 21:33:57 21:37:48 38° 72° (ENE) 21:41:38 437.325/437.525
AISAT 22 Nov 21:34:36 21:38:53 45° 72° (ENE) 21:43:10 437.250
VERMONT LUNAR 22 Nov 21:37:08 21:40:12 26° 210° (SSW) 21:43:16 437.305
BRITE-PL 22 Nov 21:41:28 21:45:03 19° 266° (W) 21:48:30 437.365/2234.400
DELFI C3 22 Nov 21:42:03 21:45:56 45° 261° (W) 21:49:53 145.870
TIGRISAT 22 Nov 21:47:00 21:48:56 13° 92° (E) 21:50:52 435.000
50 SAT 22 Nov 21:47:22 21:51:13 45° 73° (ENE) 21:55:05 437.505
HO-68 22 Nov 21:51:44 21:56:56 21° 267° (W) 22:02:10 435.675
UNISAT 6 22 Nov 21:57:39 22:00:37 17° 94° (E) 22:03:37 437.425
FUNcube-1 22 Nov 21:58:40 22:02:53 63° 259° (W) 22:07:03 145.935
CUBEBUG 1 22 Nov 22:01:48 22:05:41 30° 70° (ENE) 22:09:35 437.445
UKube-1 22 Nov 22:02:19 22:05:59 26° 264° (W) 22:09:40 .
DUCHIFAT 1 22 Nov 22:02:20 22:03:55 12° 91° (E) 22:05:30 145.980
CUBEBUG 2 22 Nov 22:07:52 22:11:52 36° 262° (W) 22:15:47 437.445
CINEMA 3 22 Nov 22:09:48 22:13:21 23° 264° (W) 22:16:48 145.822/145.860
UWE-3 22 Nov 22:15:55 22:19:49 33° 262° (W) 22:23:39 435.000/436.395/437.385
Oscar 11 22 Nov 22:17:32 22:20:20 17° 267° (W) 22:23:09 145.826/435.025
NANOSAT C BR1 22 Nov 22:19:48 22:22:54 20° 94° (E) 22:25:59 145.865
GONETS M04 22 Nov 22:23:26 22:26:27 12° 285° (WNW) 22:29:28
ANTELSAT 22 Nov 22:25:03 22:29:07 35° 98° (E) 22:33:15 437.575/2403.000
QB50P1 22 Nov 22:28:51 22:32:21 25° 96° (E) 22:35:50 145.935-145.965
BEESAT 3 22 Nov 22:31:02 22:33:30 15° 315° (NW) 22:35:59 437.485
ESTCUBE 1 22 Nov 22:32:21 22:36:52 70° 75° (ENE) 22:41:25 437.505/2401.250
DX 1 22 Nov 22:36:43 22:38:09 11° 269° (W) 22:39:36 434.975-435.025
PCSat 22 Nov 22:42:19 22:43:27 11° 320° (NW) 22:44:36 145.827
BEESAT 2 22 Nov 22:44:01 22:46:02 13° 317° (NW) 22:48:03 435.950
VELOX 1 22 Nov 22:47:40 22:51:32 28° 263° (W) 22:55:25 145.980
PHONESAT 2.4 22 Nov 22:50:59 22:52:22 12° 217° (SW) 22:53:45 2401.200-2431.200
POPSAT HIP 1 22 Nov 22:52:41 22:56:47 48° 100° (E) 23:00:50 437.405
BUGSAT 1 22 Nov 22:58:25 23:02:22 45° 99° (E) 23:06:14 437.445
AIST 2 22 Nov 23:01:22 23:04:09 17° 314° (NW) 23:06:59 435.215
ZACube-1 22 Nov 23:01:31 23:03:24 13° 268° (W) 23:05:16 437.345
HUMSAT D 22 Nov 23:11:16 23:13:45 15° 267° (W) 23:16:15 437.325/437.525
CUSAT 1 22 Nov 23:12:38 23:15:14 15° 76° (ENE) 23:18:13 437.405
AISAT 22 Nov 23:13:03 23:15:44 16° 267° (W) 23:18:24 437.250
RS-15 22 Nov 23:16:15 23:24:36 23° 27° (NNE) 23:33:08 29.354- 29.394
TIGRISAT 22 Nov 23:21:41 23:25:57 53° 286° (WNW) 23:30:19 435.000
DANDE 22 Nov 23:22:30 23:25:01 15° 76° (ENE) 23:27:55 436.750
POLYITAN 1 22 Nov 23:23:54 23:28:07 70° 285° (WNW) 23:32:19 437.675
50 SAT 22 Nov 23:25:02 23:26:46 12° 268° (W) 23:28:31 437.505
QB50P2 22 Nov 23:27:27 23:31:39 63° 285° (WNW) 23:35:49 145.880/145.840
UNISAT 6 22 Nov 23:33:26 23:37:32 39° 288° (WNW) 23:41:43 437.425
BEESAT 22 Nov 23:34:40 23:36:51 13° 62° (ENE) 23:39:02 436.000
DUCHIFAT 1 22 Nov 23:36:00 23:40:05 51° 286° (WNW) 23:44:09 145.980
CUBEBUG 1 22 Nov 23:38:33 23:42:03 23° 265° (W) 23:45:35 437.445
SPROUT 22 Nov 23:40:01 23:44:21 82° 77° (ENE) 23:48:42 437.525
TISAT 1 22 Nov 23:41:33 23:45:50 81° 258° (WSW) 23:50:07 437.305
NANOSAT C BR1 22 Nov 23:55:06 23:58:49 31° 289° (WNW) 00:02:31 145.865
AUBIESAT-1 23 Nov 00:01:49 00:05:34 47° 67° (ENE) 00:09:41 437.475
ANTELSAT 23 Nov 00:02:28 00:05:42 20° 292° (WNW) 00:08:58 437.575/2403.000
M-CUBED/EXP-1 PRIME 23 Nov 00:04:26 00:08:14 56° 69° (ENE) 00:12:25 437.505
QB50P1 23 Nov 00:04:44 00:08:09 25° 291° (WNW) 00:11:34 145.935-145.965
ISS 23 Nov 00:24:13 00:27:27 58° 138° (SE) 00:30:41 145.825
ITUPSAT 1 23 Nov 00:25:22 00:29:52 42° 71° (ENE) 00:34:24 437.325
POPSAT HIP 1 23 Nov 00:30:07 00:32:16 14° 295° (WNW) 00:34:24 437.405
BUGSAT 1 23 Nov 00:35:24 00:37:27 14° 295° (WNW) 00:39:30 437.445
SWISSCUBE 23 Nov 00:37:29 00:42:12 62° 74° (ENE) 00:46:58 437.505
CUSAT 1 23 Nov 00:53:56 00:58:15 52° 263° (W) 01:04:02 437.405
KKS-1 23 Nov 00:57:43 01:00:46 18° 66° (ENE) 01:03:49 437.445
DANDE 23 Nov 01:04:15 01:08:22 48° 263° (W) 01:13:55 436.750
BEESAT 23 Nov 01:09:21 01:14:06 67° 258° (WSW) 01:18:54 436.000
RS-15 23 Nov 01:28:25 01:39:37 67° 55° (NE) 01:51:16 29.354- 29.394
Oscar 19 23 Nov 01:33:35 01:38:40 56° 101° (E) 01:43:44 437.125/150
YUBILEINY 23 Nov 01:37:45 01:44:18 24° 81° (E) 01:50:48 435.215
AUBIESAT-1 23 Nov 01:39:11 01:40:58 13° 266° (W) 01:42:48 437.475
M-CUBED/EXP-1 PRIME 23 Nov 01:43:03 01:43:47 10° 267° (W) 01:44:31 437.505
JUGNU 23 Nov 01:45:36 01:47:17 11° 174° (S) 01:48:57 437.505
STARS 23 Nov 01:59:24 02:03:43 57° 74° (ENE) 02:08:03 437.465
ISS 23 Nov 02:01:50 02:04:20 20° 335° (NNW) 02:06:50 145.825
ITUPSAT 1 23 Nov 02:04:30 02:07:55 19° 266° (W) 02:11:20 437.325
MaSat-1 23 Nov 02:06:28 02:08:23 22° 250° (WSW) 02:10:21 437.345
SWISSCUBE 23 Nov 02:18:22 02:20:27 13° 269° (W) 02:22:33 437.505
ITAMSAT 1 23 Nov 02:18:51 02:23:58 58° 101° (E) 02:29:02 435.822/435.867
Gurwin Techsat 1B 23 Nov 02:30:46 02:35:48 43° 99° (E) 02:40:49 435.225
KKS-1 23 Nov 02:32:56 02:37:06 39° 261° (W) 02:41:18 437.445
Oscar 19 23 Nov 03:14:14 03:17:31 17° 297° (WNW) 03:20:48 437.125/150
MOZHAYETS 4 23 Nov 03:14:49 03:17:14 14° 64° (ENE) 03:19:39
YUBILEINY 23 Nov 03:31:29 03:40:14 68° 280° (W) 03:49:01 435.215
JUGNU 23 Nov 03:33:30 03:35:24 12° 185° (S) 03:37:17 437.505
AO-7 23 Nov 03:35:57 03:43:11 32° 97° (E) 03:50:22 29.400- 29.500
SRMSAT 23 Nov 03:37:36 03:39:40 12° 177° (S) 03:41:45 437.500
STARS 23 Nov 03:38:59 03:40:33 12° 269° (W) 03:42:06 437.465
HORYU 2 23 Nov 03:40:34 03:45:04 82° 284° (WNW) 03:49:34 437.375
RS-15 23 Nov 03:41:38 03:51:15 34° 254° (WSW) 04:01:15 29.354- 29.394
JAS-2 23 Nov 03:57:31 04:00:19 13° 84° (E) 04:03:00 435.910
ITAMSAT 1 23 Nov 03:59:42 04:02:57 17° 297° (WNW) 04:06:12 435.822/435.867
PCSat 23 Nov 04:01:35 04:03:59 13° 42° (NE) 04:06:21 145.827
Gurwin Techsat 1B 23 Nov 04:11:23 04:15:28 23° 295° (WNW) 04:19:33 435.225
SO-50 23 Nov 04:37:54 04:42:23 87° 301° (WNW) 04:47:03 436.795
MOZHAYETS 4 23 Nov 04:49:28 04:53:57 55° 260° (W) 04:58:30
BEESAT 3 23 Nov 05:12:37 05:16:06 25° 50° (NE) 05:19:33 437.485
CUTE-I 23 Nov 05:16:09 05:18:25 13° 90° (E) 05:20:40 437.470
ISS 23 Nov 05:18:36 05:19:56 12° 16° (NNE) 05:21:16 145.825
BEESAT 2 23 Nov 05:25:08 05:28:52 30° 52° (NE) 05:32:32 435.950
SRMSAT 23 Nov 05:26:34 05:27:57 11° 187° (S) 05:29:19 437.500
AO-7 23 Nov 05:28:09 05:36:13 55° 294° (WNW) 05:44:17 29.400- 29.500
STRAND 1 23 Nov 05:32:38 05:37:09 32° 68° (ENE) 05:41:41 437.568
YUBILEINY 23 Nov 05:35:46 05:38:51 12° 301° (WNW) 05:41:57 435.215
PRISM 23 Nov 05:37:47 05:41:59 82° 257° (WSW) 05:46:13 437.425
JAS-2 23 Nov 05:39:15 05:46:32 87° 104° (ESE) 05:52:54 435.910
PCSat 23 Nov 05:42:52 05:48:19 77° 62° (ENE) 05:53:43 145.827
AIST 2 23 Nov 05:44:53 05:48:28 25° 50° (NE) 05:52:00 435.215
O/OREOS (USA 219) 23 Nov 06:03:04 06:07:08 35° 105° (ESE) 06:11:12 437.305
Cubesat XI-IV 23 Nov 06:11:24 06:16:32 46° 99° (E) 06:21:37 437.490
CUBESAT XI-V 23 Nov 06:21:08 06:25:51 85° 257° (WSW) 06:30:36 437.345
SO-50 23 Nov 06:21:41 06:23:40 13° 320° (NW) 06:25:42 436.795
BEESAT 3 23 Nov 06:50:40 06:54:20 30° 247° (WSW) 06:57:57 437.485
CUTE-I 23 Nov 06:53:40 06:58:59 72° 286° (WNW) 07:04:15 437.470
ISS 23 Nov 06:54:04 06:57:16 44° 34° (NE) 07:00:27 145.825
BEESAT 2 23 Nov 07:03:36 07:07:02 25° 248° (WSW) 07:10:25 435.950
STRAND 1 23 Nov 07:11:53 07:16:17 28° 264° (W) 07:20:43 437.568
AIST 1 23 Nov 07:21:03 07:25:28 86° 83° (E) 07:29:49
AIST 2 23 Nov 07:23:18 07:27:07 31° 247° (WSW) 07:30:52 435.215
AO-7 23 Nov 07:24:48 07:27:09 11° 314° (NW) 07:29:30 29.400- 29.500
JAS-2 23 Nov 07:26:05 07:30:25 17° 304° (NW) 07:34:30 435.910
GONETS M04 23 Nov 07:26:53 07:33:46 27° 82° (E) 07:40:40
PCSat 23 Nov 07:28:41 07:30:59 13° 257° (WSW) 07:33:17 145.827
HO-68 23 Nov 07:34:38 07:36:53 12° 88° (E) 07:39:08 435.675
O/OREOS (USA 219) 23 Nov 07:43:10 07:46:36 21° 301° (WNW) 07:50:02 437.305
Cubesat XI-IV 23 Nov 07:52:19 07:56:16 22° 295° (WNW) 08:00:12 437.490
CUTE 1.7 & AOD 2 23 Nov 08:04:42 08:06:26 12° 91° (E) 08:08:09 437.475
BRITE-PL 23 Nov 08:09:49 08:11:32 12° 92° (E) 08:13:16 437.365/2234.400
ISS 23 Nov 08:31:23 08:33:40 18° 230° (SW) 08:35:57 145.825
SEEDS 23 Nov 08:40:12 08:43:51 27° 96° (E) 08:47:30 437.485
DX 1 23 Nov 08:49:59 08:51:05 11° 91° (E) 08:52:11 434.975-435.025
UNISAT 6 23 Nov 08:57:03 08:59:06 13° 65° (ENE) 09:01:09 437.425
CANX-2 23 Nov 09:03:16 09:07:33 66° 101° (E) 09:11:49 2200.000
AAUSAT CUBESAT 2 23 Nov 09:03:17 09:07:13 37° 98° (E) 09:11:09 437.432
DOVE 4 23 Nov 09:06:15 09:09:56 30° 97° (E) 09:13:41 437.250
NANOSAT C BR1 23 Nov 09:12:45 09:14:56 14° 65° (ENE) 09:17:06 145.865
COMPASS 1 23 Nov 09:16:09 09:20:22 61° 101° (E) 09:24:34 437.405
HO-68 23 Nov 09:18:22 09:25:35 79° 105° (ESE) 09:32:44 435.675
GONETS M04 23 Nov 09:21:12 09:29:51 62° 281° (W) 09:38:38
QB50P1 23 Nov 09:21:29 09:24:17 17° 67° (ENE) 09:27:06 145.935-145.965
ANTELSAT 23 Nov 09:23:41 09:27:15 26° 69° (ENE) 09:30:48 437.575/2403.000
DELFI C3 23 Nov 09:24:42 09:28:14 27° 96° (E) 09:31:45 145.870
GOMX 1 23 Nov 09:33:28 09:37:37 89° 102° (ESE) 09:41:51 467.674
CUTE 1.7 & AOD 2 23 Nov 09:38:29 09:42:39 52° 286° (WNW) 09:46:48 437.475
POPSAT HIP 1 23 Nov 09:44:44 09:48:30 31° 71° (ENE) 09:52:16 437.405
BRITE-PL 23 Nov 09:46:23 09:50:21 44° 287° (WNW) 09:54:18 437.365/2234.400
BUGSAT 1 23 Nov 09:47:39 09:51:18 28° 70° (ENE) 09:54:56 437.445
FUNcube-1 23 Nov 09:49:12 09:52:44 25° 96° (E) 09:56:17 145.935
UKube-1 23 Nov 09:50:58 09:55:15 56° 101° (E) 09:59:29 .
CUBEBUG 2 23 Nov 10:00:09 10:04:14 47° 100° (E) 10:08:24 437.445
Oscar 11 23 Nov 10:04:37 10:08:59 85° 283° (WNW) 10:13:19 145.826/435.025
CINEMA 3 23 Nov 10:05:01 10:09:14 90° 103° (ESE) 10:13:33 145.822/145.860
UWE-3 23 Nov 10:06:57 10:11:03 49° 100° (E) 10:15:13 435.000/436.395/437.385
POLYITAN 1 23 Nov 10:15:47 10:20:02 73° 76° (ENE) 10:24:18 437.675
SEEDS 23 Nov 10:16:11 10:19:33 23° 291° (WNW) 10:22:56 437.485
QB50P2 23 Nov 10:19:04 10:23:20 80° 76° (ENE) 10:27:37 145.880/145.840
TIGRISAT 23 Nov 10:19:16 10:23:33 72° 258° (WSW) 10:27:48 435.000
DX 1 23 Nov 10:23:24 10:27:41 59° 286° (WNW) 10:31:57 434.975-435.025
DUCHIFAT 1 23 Nov 10:27:11 10:31:27 84° 257° (WSW) 10:35:44 145.980
ESTCUBE 1 23 Nov 10:28:06 10:31:00 17° 93° (E) 10:33:52 437.505/2401.250
UNISAT 6 23 Nov 10:31:18 10:35:28 50° 260° (W) 10:39:38 437.425
SHINDAISAT 23 Nov 10:33:38 10:35:05 38° 117° (ESE) 10:36:33 437.305
VELOX 1 23 Nov 10:39:26 10:43:49 60° 101° (E) 10:48:10 145.980
AAUSAT CUBESAT 2 23 Nov 10:39:50 10:42:37 17° 293° (WNW) 10:45:23 437.432
CANX-2 23 Nov 10:41:58 10:42:55 11° 296° (WNW) 10:43:52 2200.000
DOVE 4 23 Nov 10:44:32 10:47:33 20° 292° (WNW) 10:50:36 437.250
NANOSAT C BR1 23 Nov 10:46:15 10:50:23 49° 260° (W) 10:54:32 145.865
ZACube-1 23 Nov 10:49:01 10:53:11 62° 285° (WNW) 10:57:25 437.345
COMPASS 1 23 Nov 10:54:17 10:55:34 11° 296° (WNW) 10:56:50 437.405
HUMSAT D 23 Nov 10:55:25 10:59:36 87° 285° (WNW) 11:03:48 437.325/437.525
QB50P1 23 Nov 10:55:55 10:59:53 38° 262° (W) 11:03:53 145.935-145.965
DELFI C3 23 Nov 11:00:11 11:03:24 22° 291° (WNW) 11:06:37 145.870
ANTELSAT 23 Nov 11:00:32 11:04:00 24° 264° (W) 11:07:29 437.575/2403.000
AISAT 23 Nov 11:03:45 11:08:10 70° 285° (WNW) 11:12:33 437.250
50 SAT 23 Nov 11:04:53 11:08:57 81° 283° (WNW) 11:13:01 437.505
HO-68 23 Nov 11:07:38 11:12:28 20° 303° (WNW) 11:17:17 435.675
POPSAT HIP 1 23 Nov 11:21:15 11:24:26 20° 265° (W) 11:27:37 437.405
BUGSAT 1 23 Nov 11:23:22 11:26:45 23° 265° (W) 11:30:09 437.445
FUNcube-1 23 Nov 11:25:35 11:29:00 24° 290° (WNW) 11:32:27 145.935
GONETS M04 23 Nov 11:27:02 11:28:43 11° 303° (WNW) 11:30:25
CUBEBUG 1 23 Nov 11:28:10 11:32:34 75° 102° (ESE) 11:36:53 437.445
UKube-1 23 Nov 11:28:58 11:30:55 13° 297° (WNW) 11:32:51 .
TISAT 1 23 Nov 11:29:23 11:32:14 18° 94° (E) 11:35:05 437.305
SPROUT 23 Nov 11:29:48 11:32:26 16° 93° (E) 11:35:03 437.525
CUBEBUG 2 23 Nov 11:38:24 11:40:34 14° 294° (WNW) 11:42:45 437.445
UWE-3 23 Nov 11:45:07 11:47:12 14° 294° (WNW) 11:49:18 435.000/436.395/437.385
ESTCUBE 1 23 Nov 12:03:46 12:08:04 43° 288° (WNW) 12:12:19 437.505/2401.250
VELOX 1 23 Nov 12:18:02 12:19:53 12° 297° (WNW) 12:21:43 145.980
ITUPSAT 1 23 Nov 12:29:47 12:31:34 12° 91° (E) 12:33:21 437.325
DANDE 23 Nov 12:39:02 12:40:00 11° 94° (E) 12:40:55 436.750
SWISSCUBE 23 Nov 12:40:40 12:43:55 18° 93° (E) 12:47:09 437.505
Oscar 19 23 Nov 12:49:01 12:54:06 71° 74° (ENE) 12:59:12 437.125/150
TISAT 1 23 Nov 13:04:21 13:08:10 34° 289° (WNW) 13:11:58 437.305
SPROUT 23 Nov 13:04:41 13:08:41 39° 288° (WNW) 13:12:40 437.525
SO-50 23 Nov 13:10:43 13:15:32 57° 56° (NE) 13:20:21 436.795
BEESAT 23 Nov 13:11:31 13:15:55 35° 98° (E) 13:20:16 436.000
AUBIESAT-1 23 Nov 13:20:16 13:25:07 56° 105° (ESE) 13:29:51 437.475
M-CUBED/EXP-1 PRIME 23 Nov 13:23:19 13:28:15 66° 106° (ESE) 13:33:04 437.505
ITAMSAT 1 23 Nov 13:35:20 13:40:32 76° 75° (ENE) 13:45:46 435.822/435.867
YUBILEINY 23 Nov 13:43:33 13:52:07 57° 78° (ENE) 14:00:36 435.215
Gurwin Techsat 1B 23 Nov 13:50:22 13:55:33 59° 73° (ENE) 14:00:47 435.225
STARS 23 Nov 13:53:15 13:54:52 12° 91° (E) 13:56:29 437.465
ITUPSAT 1 23 Nov 14:05:06 14:09:53 65° 286° (WNW) 14:14:37 437.325
CUSAT 1 23 Nov 14:08:21 14:10:17 17° 283° (WNW) 14:12:06 437.405
SWISSCUBE 23 Nov 14:17:25 14:21:59 44° 289° (WNW) 14:26:30 437.505
DANDE 23 Nov 14:21:35 14:23:20 15° 283° (WNW) 14:24:58 436.750
KKS-1 23 Nov 14:25:32 14:29:45 42° 99° (E) 14:33:58 437.445
VERMONT LUNAR 23 Nov 14:27:33 14:29:39 15° 145° (SE) 14:31:46 437.305
Oscar 19 23 Nov 14:31:56 14:33:55 12° 270° (W) 14:35:54 437.125/150
AO-7 23 Nov 14:33:26 14:40:53 39° 62° (ENE) 14:48:23 29.400- 29.500
HORYU 2 23 Nov 14:37:42 14:42:07 77° 76° (ENE) 14:46:33 437.375
BEESAT 23 Nov 14:49:47 14:53:33 23° 293° (WNW) 14:57:17 436.000
SO-50 23 Nov 14:52:37 14:55:37 16° 251° (WSW) 14:58:38 436.795
AUBIESAT-1 23 Nov 14:56:22 14:59:37 18° 300° (WNW) 15:02:51 437.475
M-CUBED/EXP-1 PRIME 23 Nov 14:59:49 15:02:43 16° 301° (WNW) 15:05:35 437.505
ITAMSAT 1 23 Nov 15:18:48 15:20:33 12° 270° (W) 15:22:18 435.822/435.867
STARS 23 Nov 15:27:23 15:31:41 56° 286° (WNW) 15:35:58 437.465
Gurwin Techsat 1B 23 Nov 15:32:42 15:35:53 16° 268° (W) 15:39:04 435.225
MaSat-1 23 Nov 15:33:32 15:36:37 56° 113° (ESE) 15:39:25 437.345
YUBILEINY 23 Nov 15:41:17 15:48:19 29° 277° (W) 15:55:19 435.215
PHONESAT 2.4 23 Nov 15:41:38 15:45:01 34° 153° (SSE) 15:48:26 2401.200-2431.200
JAS-2 23 Nov 15:48:01 15:54:48 38° 65° (ENE) 16:01:50 435.910
RS-15 23 Nov 15:50:28 16:00:46 48° 110° (ESE) 16:10:57 29.354- 29.394
KKS-1 23 Nov 16:03:13 16:06:03 17° 295° (WNW) 16:08:52 437.445
VERMONT LUNAR 23 Nov 16:04:07 16:07:42 62° 159° (SSE) 16:11:18 437.305
O/OREOS (USA 219) 23 Nov 16:14:00 16:18:23 53° 66° (ENE) 16:22:45 437.305
AO-7 23 Nov 16:25:40 16:33:29 46° 259° (W) 16:41:24 29.400- 29.500
CUTE-I 23 Nov 16:36:03 16:39:53 20° 64° (ENE) 16:43:43 437.470
MOZHAYETS 4 23 Nov 16:46:18 16:50:40 38° 98° (E) 16:55:00
PHONESAT 2.4 23 Nov 17:19:58 17:23:41 78° 349° (NNW) 17:27:25 2401.200-2431.200
PRISM 23 Nov 17:23:52 17:26:32 16° 93° (E) 17:29:09 437.425
Cubesat XI-IV 23 Nov 17:31:57 17:37:17 67° 74° (ENE) 17:42:37 437.490
JAS-2 23 Nov 17:32:28 17:39:32 46° 263° (W) 17:47:02 435.910
GONETS M04 23 Nov 17:41:00 17:43:09 11° 58° (ENE) 17:45:18
VERMONT LUNAR 23 Nov 17:42:38 17:46:15 63° 356° (N) 17:49:52 437.305
STRAND 1 23 Nov 17:46:57 17:48:27 11° 90° (E) 17:49:57 437.568
O/OREOS (USA 219) 23 Nov 17:55:18 17:57:16 13° 262° (W) 17:59:14 437.305
